Location: Berville
(49.1893°N, 2.0748°E)
Time: 06:37:31
(UTC+00:00)

PAYLOAD B - Pass Details

Date: 08 February 2023
Orbit: 849 x 870 km, 99.1° (Epoch: 21 March)

Event Time Altitude Azimuth Distance (km) Brightness Sun altitude
Rises 18:01:41 0° 153° (SSE) 3,413 7.2 -10.6°
Reaches altitude 10° 18:04:04 10° 150° (SSE) 2,478 6.4 -10.9°
Maximum altitude 18:09:30 65° 70° (ENE) 934 4.2 -11.8°
Drops below altitude 10° 18:14:57 10° 350° (N) 2,488 6.7 -12.7°
Sets 18:17:21 0° 347° (NNW) 3,427 7.4 -13.1°
